Погода в Оскуй

Россия / Новгородская область     59°16′34″N   32°05′18″E
темп.,
°C
ветер,
м/с
пор.,
м/с
влажн.,
%
обл.,
%
осадки,
мм/ч
давл.,
гПа
погр.,
м
17 апреля, сб
сб1700:00+6всв4127075 0.0 1028434
03:00+6св4117487 0.0 1029406
06:00+3св4118422 0.0 1028302
09:00+8всв59605 0.0 1029499
12:00+13всв57415 0.0 10291018
15:00+15всв56345 0.0 10281307
18:00+14всв47415 0.0 10271193
21:00+9св412615 0.0 1028366
18 апреля, вс
вс1800:00+6св311745 0.0 1029331
03:00+4св310885 0.0 1029251
06:00+3св310915 0.0 1029238
09:00+8всв48613 0.0 1029533
12:00+12всв57395 0.0 10291600
15:00+14всв57355 0.0 10282069
18:00+13всв46437 0.0 10281875
21:00+9всв41060100 0.0 1029413
19 апреля, пн
пн1900:00+7всв397250 0.0 1030297
03:00+5всв398487 0.0 1030234
06:00+3всв38935 0.0 1030223
09:00+8всв46635 0.0 1030594
12:00+11всв46445 0.0 10291342
15:00+13всв46365 0.0 10281790
18:00+12в35415 0.0 10271885
21:00+6всв3105862 0.0 1028213
20 апреля, вт
вт2000:00+4в210695 0.0 1027213
03:00+2всв387357 0.0 1026177
06:00+1всв397927 0.0 1025210
09:00+6в4755100 0.0 1024529
12:00+10вюв463994 0.0 10221556
15:00+11в46326 0.0 10201765
18:00+11в4646100 0.0 10181704
21:00+7в4967100 0.0 1017834
21 апреля, ср
ср2100:00+7св41067100 0.1 1012929
03:00+5всв61282100 1.6 1008984
06:00+3всв51396100 3.6 1004794
09:00+3всв41196100 4.5 1001655
12:00+3всв41096100 4.4 999555
15:00+4всв31095100 5.8 997567
18:00+5всв2897100 1.9 996387
21:00+5вюв2798100 3.6 996378